Location: Goll?ig?dem
(16.6773°N, 80.7332°E)
Time: 02:09:21
(UTC+00:00)

Cosmos 1190 Rocket - Pass Details

Date: 21 April 2021
Orbit: 757 x 779 km, 74.1° (Epoch: 07 May)

Event Time Altitude Azimuth Distance (km) Brightness Sun altitude
Exits shadow 14:51:29 61° 11° (N) 866 4.2 -27.6°
Drops below altitude 10° 14:55:46 10° 13° (NNE) 2,297 6.6 -28.5°
Sets 14:58:08 0° 14° (NNE) 3,220 7.4 -29.0°
